sat.trackr.live / text

‹ back to catalog

RADFXSAT (FOX-1B)

NORAD 43017 · 2017-073E

PAYLOAD ACTIVE UNKNOWN

§ Identity

Operator
Country
US
Launch date
2017-11-18
Launch site
AFWTR
Launch vehicle
Mass (kg)
RCS (m²)

Purposes: comms

External: N2YO · Heavens-Above · Gunter

§ Orbital elements

Epoch: 2026-09-19T21:27:36.394272Z

Period
95.11 min
Inclination
97.4551°
Eccentricity
0.0147209
Mean motion
15.13974742 rev/d
Perigee alt
422.5 km
Apogee alt
625.7 km
Semi-major
6,902.2 km
B*
2.6021e-4
RAAN
128.1747°
Arg perigee
1.9522°
Mean anomaly
358.2253°
Rev number
47,971

§ Raw data

RADFXSAT (FOX-1B)1 43017U 17073E   26262.89417123  .00006111  00000+0  26021-3 0  99982 43017  97.4551 128.1747 0147209   1.9522 358.2253 15.13974742479719

JSON: /api/v1/satellites/43017 · /tle

For live sub-satellite position, see the globe view (requires WebGL).

§ Visibility from observer

Set your observer location to see the next 7 days of passes ≥ 10°. The values pass through the URL so the page stays shareable.

No JS? Fill the form by hand. The geolocation button needs JavaScript.

§ Radio — SatNOGS DB

ModeDescriptionDownlinkUplink
DUV DUV TLM 145.960 MHz
FM Mode U/V FM Voice (no CTCSS any longer) 145.960 MHz 435.250 MHz

2 transmitters · refreshed weekly from db.satnogs.org